GW3497 Weather Reports


time (UTC)temp
C
wind
direction
speed
KPH
gust
KPH
rain 1hr
cm
rain 24hr
cm
rain mn
cm
humidity
%
barometer
mb
20260905022852 13 268 8.0 16.1 0.00 0.28 0.00 86 1019.6
20260905022352 13 251 8.0 17.7 0.00 0.28 0.00 86 1019.4
20260905021854 13 295 6.4 17.7 0.00 0.28 0.00 86 1019.5
20260905021353 13 255 6.4 14.5 0.00 0.28 0.00 86 1019.4
20260905020851 13 279 4.8 14.5 0.00 0.28 0.00 86 1019.4
20260905020350 12 272 6.4 14.5 0.00 0.28 0.00 86 1019.3
20260905015848 12 288 6.4 14.5 0.00 0.28 0.00 86 1019.3
20260905015347 12 296 6.4 11.3 0.00 0.28 0.00 86 1019.3
20260905014849 12 252 4.8 14.5 0.00 0.28 0.00 86 1019.3
20260905014355 12 279 6.4 14.5 0.00 0.28 0.00 86 1019.3
20260905014214 12 266 6.4 11.3 0.00 0.28 0.00 86 1019.3
20260905013529 12 261 4.8 14.5 0.00 0.28 0.00 86 1019.3
20260905013449 12 252 6.4 11.3 0.00 0.28 0.00 86 1019.3
20260905012347 13 248 8.0 14.5 0.00 0.28 0.00 85 1019.2
20260905011846 13 274 4.8 16.1 0.00 0.28 0.00 85 1019.1
20260905011344 13 259 6.4 16.1 0.00 0.28 0.00 85 1019.1
20260905010843 13 266 6.4 14.5 0.00 0.28 0.00 85 1019.2
20260905010336 13 248 6.4 11.3 0.00 0.28 0.00 85 1019.1
20260905005838 13 247 8.0 17.7 0.00 0.28 0.00 85 1019.0
20260905005629 13 276 6.4 17.7 0.00 0.28 0.00 85 1019.0
20260905004837 13 264 4.8 11.3 0.00 0.28 0.00 85 1019.1
20260905004334 13 248 6.4 9.7 0.00 0.28 0.00 85 1019.1
20260905003833 13 248 4.8 9.7 0.00 0.28 0.00 85 1019.0
20260905003330 13 283 4.8 9.7 0.00 0.28 0.00 85 1018.9
20260905002831 13 274 4.8 9.7 0.00 0.28 0.00 85 1018.9
20260905002333 13 257 3.2 9.7 0.00 0.28 0.00 85 1018.9
20260905002206 13 258 6.4 16.1 0.00 0.28 0.00 85 1018.9
20260905001334 13 264 6.4 16.1 0.00 0.28 0.00 84 1018.9
20260905000955 13 257 4.8 9.7 0.00 0.28 0.00 84 1018.9
20260905000922 13 255 4.8 9.7 0.00 0.28 0.00 84 1018.9
20260904235824 13 259 4.8 8.0 0.00 0.28 0.00 84 1018.8
20260904235322 13 269 3.2 11.3 0.00 0.28 0.00 84 1018.8
20260904234823 13 258 6.4 11.3 0.00 0.28 0.00 84 1018.7
20260904234322 13 278 4.8 11.3 0.00 0.28 0.00 83 1018.7
20260904233940 13 290 6.4 14.5 0.00 0.28 0.00 83 1018.7
20260904233918 13 303 6.4 14.5 0.00 0.28 0.00 83 1018.7
20260904233228 13 268 6.4 14.5 0.00 0.28 0.00 83 1018.6
20260904232618 13 244 6.4 14.5 0.00 0.28 0.00 83 1018.6
20260904231818 13 283 6.4 16.1 0.00 0.28 0.00 83 1018.7
20260904231317 13 303 6.4 16.1 0.00 0.28 0.00 83 1018.6
20260904230814 13 281 6.4 11.3 0.00 0.28 0.00 83 1018.6
20260904230318 13 290 6.4 11.3 0.00 0.28 0.00 83 1018.7
20260904225814 13 243 4.8 9.7 0.00 0.28 0.28 83 1018.6
20260904225627 13 266 6.4 9.7 0.00 0.28 0.28 83 1018.6
20260904224815 13 293 4.8 9.7 0.00 0.28 0.28 83 1018.7
20260904224313 13 255 4.8 14.5 0.00 0.28 0.28 82 1018.7
20260904224146 13 275 4.8 14.5 0.00 0.28 0.28 82 1018.5
20260904223314 13 303 4.8 9.7 0.00 0.28 0.28 82 1018.5
20260904222813 13 290 4.8 9.7 0.00 0.28 0.28 82 1018.4
20260904222615 13 266 4.8 9.7 0.00 0.28 0.28 82 1018.4
20260904221813 13 295 3.2 9.7 0.00 0.28 0.28 82 1018.4
20260904221313 13 288 3.2 9.7 0.00 0.28 0.28 82 1018.4
20260904220811 13 282 3.2 14.5 0.00 0.28 0.28 81 1018.4
20260904220309 13 271 6.4 14.5 0.00 0.28 0.28 81 1018.3
20260904215809 13 271 4.8 14.5 0.00 0.28 0.28 81 1018.2
20260904215308 13 258 6.4 9.7 0.00 0.28 0.28 80 1018.3
20260904214808 13 274 4.8 9.7 0.00 0.28 0.28 80 1018.4
20260904214305 13 259 4.8 8.0 0.00 0.28 0.28 80 1018.2
20260904214134 13 268 3.2 11.3 0.00 0.28 0.28 80 1018.1
20260904213304 13 252 3.2 11.3 0.00 0.28 0.28 80 1018.1
20260904212803 13 262 4.8 9.7 0.00 0.28 0.28 80 1018.1
20260904212302 13 248 4.8 9.7 0.00 0.28 0.28 79 1018.2
20260904212131 14 261 4.8 9.7 0.00 0.28 0.28 79 1018.1
20260904211259 14 259 4.8 8.0 0.00 0.28 0.28 79 1018.1
20260904210758 14 254 4.8 8.0 0.00 0.28 0.28 78 1018.0
20260904210258 14 278 4.8 8.0 0.00 0.28 0.28 78 1018.0
20260904205758 14 257 6.4 9.7 0.00 0.28 0.28 78 1018.0
20260904205603 14 255 4.8 11.3 0.00 0.28 0.28 78 1018.0
20260904204758 14 248 8.0 11.3 0.00 0.28 0.28 78 1018.0
20260904204252 14 282 3.2 14.5 0.00 0.28 0.28 78 1017.9
20260904203749 14 261 3.2 14.5 0.00 0.28 0.28 77 1017.8
20260904203251 14 286 3.2 11.3 0.00 0.28 0.28 77 1017.9
20260904202914 14 262 3.2 8.0 0.00 0.28 0.28 76 1017.9
20260904202849 14 282 4.8 11.3 0.00 0.28 0.28 77 1017.8
20260904201754 14 286 3.2 8.0 0.00 0.28 0.28 76 1018.0
20260904201250 15 282 4.8 9.7 0.00 0.28 0.28 76 1018.0
20260904201142 15 281 4.8 9.7 0.00 0.28 0.28 76 1017.9
20260904200250 15 292 3.2 9.7 0.00 0.28 0.28 76 1017.9
20260904195749 15 276 4.8 9.7 0.00 0.28 0.28 76 1017.9
20260904195253 15 292 4.8 8.0 0.00 0.28 0.28 77 1017.9
20260904194750 15 254 3.2 8.0 0.00 0.28 0.28 77 1017.8
20260904194249 15 250 3.2 9.7 0.00 0.28 0.28 77 1017.7
20260904193755 15 251 4.8 9.7 0.00 0.28 0.28 76 1017.6
20260904193250 15 258 6.4 8.0 0.00 0.28 0.28 75 1017.4
20260904193204 15 265 4.8 8.0 0.00 0.28 0.28 76 1017.4
20260904192251 15 288 3.2 8.0 0.00 0.28 0.28 76 1017.3
20260904191749 16 279 4.8 14.5 0.00 0.28 0.28 76 1017.1
20260904191606 16 292 4.8 14.5 0.00 0.28 0.28 75 1017.1
20260904190748 16 251 3.2 8.0 0.00 0.28 0.28 75 1017.0
20260904190247 16 257 3.2 6.4 0.00 0.28 0.28 75 1016.9
20260904185745 16 255 4.8 11.3 0.00 0.28 0.28 75 1016.8
20260904185242 16 254 4.8 14.5 0.00 0.28 0.28 74 1016.7
20260904184740 16 285 4.8 14.5 0.00 0.28 0.28 74 1016.6
20260904184557 16 269 4.8 14.5 0.00 0.28 0.28 73 1016.6
20260904183739 17 258 3.2 11.3 0.00 0.28 0.28 73 1016.5
20260904183600 17 247 3.2 16.1 0.00 0.28 0.28 72 1016.3
20260904182738 17 283 8.0 16.1 0.00 0.28 0.28 72 1016.3
20260904182238 17 288 4.8 11.3 0.00 0.28 0.28 72 1016.3
20260904181748 17 250 4.8 17.7 0.00 0.28 0.28 72 1016.3
20260904181400 17 244 9.7 17.7 0.00 0.28 0.28 72 1016.2
20260904180235 17 248 4.8 24.1 0.00 0.28 0.28 71 1016.1
20260904180124 17 262 8.0 24.1 0.00 0.28 0.28 71 1016.0
20260904175234 17 275 6.4 16.1 0.00 0.28 0.28 71 1016.0
20260904174736 17 257 4.8 16.1 0.00 0.28 0.28 71 1015.9
20260904174231 17 259 4.8 19.3 0.00 0.28 0.28 70 1015.9
20260904173737 17 262 6.4 19.3 0.00 0.28 0.28 70 1015.8
20260904173548 17 250 6.4 14.5 0.00 0.28 0.28 70 1015.7
20260904172737 17 276 8.0 16.1 0.00 0.28 0.28 69 1015.5
20260904172234 17 306 6.4 16.1 0.00 0.28 0.28 69 1015.5
20260904171733 17 259 8.0 16.1 0.00 0.28 0.28 69 1015.4
20260904171230 17 295 4.8 14.5 0.00 0.28 0.28 68 1015.4
20260904170734 17 265 6.4 14.5 0.00 0.28 0.28 68 1015.5
20260904170243 17 252 6.4 19.3 0.00 0.28 0.28 68 1015.5
20260904165729 17 250 6.4 19.3 0.00 0.28 0.28 67 1015.4
20260904165412 17 251 3.2 16.1 0.00 0.28 0.28 67 1015.4
20260904165342 17 282 6.4 16.1 0.00 0.28 0.28 67 1015.4
20260904164228 17 282 6.4 20.9 0.00 0.28 0.28 66 1015.4
20260904163728 17 247 8.0 20.9 0.00 0.28 0.28 66 1015.3
20260904163227 17 275 6.4 16.1 0.00 0.28 0.28 66 1015.3
20260904162728 18 345 8.0 16.1 0.00 0.28 0.28 66 1015.2
20260904162230 18 285 8.0 16.1 0.00 0.28 0.28 67 1015.0
20260904161726 18 275 4.8 16.1 0.00 0.28 0.28 66 1015.0
20260904161223 18 272 6.4 22.5 0.00 0.28 0.28 66 1015.0
20260904160723 18 255 11.3 22.5 0.00 0.28 0.28 65 1015.0
20260904160222 18 264 9.7 17.7 0.00 0.28 0.28 66 1015.0
20260904155727 18 305 6.4 16.1 0.00 0.28 0.28 67 1014.9
20260904155222 18 255 8.0 16.1 0.00 0.28 0.28 67 1014.8
20260904154838 18 266 9.7 19.3 0.00 0.28 0.28 66 1014.5
20260904154816 18 254 9.7 17.7 0.00 0.28 0.28 66 1014.6
20260904154114 18 258 9.7 19.3 0.00 0.28 0.28 66 1014.5
20260904153218 18 293 11.3 22.5 0.00 0.28 0.28 66 1014.6
20260904152718 18 258 11.3 22.5 0.00 0.28 0.28 66 1014.6
20260904152234 18 257 11.3 19.3 0.00 0.28 0.28 66 1014.6
20260904151720 18 248 9.7 20.9 0.00 0.28 0.28 67 1014.6
20260904151215 18 261 6.4 25.7 0.00 0.28 0.28 67 1014.6
20260904150714 18 272 14.5 29.0 0.00 0.28 0.28 66 1014.8
20260904150215 18 261 14.5 29.0 0.00 0.28 0.28 66 1014.9
20260904145715 18 269 12.9 22.5 0.00 0.28 0.28 65 1014.8
20260904145212 18 231 11.3 22.5 0.00 0.28 0.28 66 1014.5
20260904144716 18 266 9.7 22.5 0.00 0.28 0.28 66 1014.5
20260904144212 18 268 9.7 24.1 0.00 0.28 0.28 65 1014.5
20260904144044 18 285 17.7 24.1 0.00 0.28 0.28 65 1014.3
20260904143212 18 250 6.4 20.9 0.00 0.28 0.28 67 1014.4
20260904142708 18 295 12.9 24.1 0.00 0.28 0.28 66 1014.4
20260904142207 18 310 14.5 25.7 0.00 0.28 0.28 66 1014.4
20260904141709 18 248 9.7 25.7 0.00 0.28 0.28 67 1014.3
20260904141216 18 252 9.7 25.7 0.00 0.28 0.28 67 1014.2
20260904141046 18 262 16.1 25.7 0.00 0.28 0.28 67 1014.2
20260904140529 18 272 9.7 25.7 0.00 0.28 0.28 66 1014.2
20260904140149 18 300 12.9 25.7 0.00 0.28 0.28 67 1014.2
20260904135156 18 319 9.7 25.7 0.00 0.28 0.28 68 1014.3
20260904134659 18 269 9.7 25.7 0.00 0.28 0.28 68 1014.2
20260904134156 18 302 12.9 22.5 0.00 0.28 0.28 68 1014.3
20260904133657 18 309 9.7 22.5 0.00 0.28 0.28 70 1014.3
20260904133154 18 269 12.9 27.4 0.00 0.28 0.28 69 1014.4
20260904132652 18 292 11.3 27.4 0.00 0.28 0.28 69 1014.4
20260904132152 18 312 6.4 19.3 0.00 0.28 0.28 71 1014.4
20260904131657 17 258 9.7 19.3 0.00 0.28 0.28 70 1014.3
20260904131152 17 252 9.7 22.5 0.00 0.28 0.28 69 1014.3
20260904130953 17 307 12.9 24.1 0.00 0.28 0.28 69 1014.1
20260904130156 17 305 8.0 24.1 0.00 0.28 0.28 69 1014.2
20260904125655 17 265 12.9 25.7 0.00 0.28 0.28 69 1013.9
20260904125448 17 286 14.5 25.7 0.00 0.28 0.28 70 1013.8
20260904124652 18 244 11.3 22.5 0.00 0.28 0.28 71 1013.8
20260904124149 18 275 8.0 17.7 0.00 0.28 0.28 75 1013.9
20260904123654 17 278 8.0 29.0 0.00 0.28 0.28 75 1013.7
20260904123158 17 312 9.7 29.0 0.00 0.28 0.28 75 1013.6
20260904122652 17 296 12.9 22.5 0.00 0.28 0.28 76 1013.6
20260904122148 17 300 9.7 24.1 0.00 0.28 0.28 75 1013.3
20260904121649 17 269 12.9 24.1 0.00 0.28 0.28 75 1013.2
20260904121148 17 275 11.3 20.9 0.00 0.28 0.28 77 1013.4
20260904120651 17 286 9.7 25.7 0.00 0.28 0.28 80 1013.5
20260904120156 17 262 8.0 25.7 0.00 0.28 0.28 80 1013.4
20260904115650 17 290 6.4 20.9 0.00 0.28 0.28 82 1013.4
20260904115147 17 282 11.3 24.1 0.00 0.28 0.28 81 1013.2
20260904114648 17 286 11.3 24.1 0.00 0.28 0.28 81 1013.3
20260904114151 17 286 9.7 24.1 0.00 0.28 0.28 81 1013.2
20260904113649 17 307 9.7 24.1 0.00 0.28 0.28 80 1013.0
20260904113147 17 245 9.7 25.7 0.00 0.28 0.28 81 1012.8
20260904112943 17 306 9.7 25.7 0.00 0.28 0.28 81 1012.9
20260904112147 17 327 11.3 20.9 0.00 0.28 0.28 82 1012.8
20260904111650 17 226 6.4 19.3 0.00 0.28 0.28 83 1012.7
20260904111146 17 252 12.9 20.9 0.00 0.28 0.28 84 1012.9
20260904110647 17 338 12.9 25.7 0.00 0.28 0.28 84 1012.8
20260904110147 17 269 11.3 25.7 0.00 0.28 0.28 84 1012.5
20260904105647 17 241 9.7 20.9 0.00 0.28 0.28 84 1012.5
20260904105439 17 266 6.4 27.4 0.00 0.28 0.28 84 1012.5
20260904104649 17 295 9.7 27.4 0.00 0.28 0.28 83 1012.8
20260904104148 17 305 9.7 25.7 0.00 0.28 0.28 84 1012.7
20260904103643 17 274 12.9 22.5 0.00 0.28 0.28 85 1012.5
20260904103143 17 286 11.3 29.0 0.00 0.28 0.28 84 1012.6
20260904102642 17 283 14.5 29.0 0.00 0.28 0.28 86 1012.5
20260904102142 17 279 8.0 24.1 0.00 0.28 0.28 87 1012.5
20260904101642 17 286 6.4 24.1 0.03 0.28 0.28 88 1012.6
20260904101325 17 292 12.9 24.1 0.03 0.28 0.28 89 1012.5
20260904101252 17 279 8.0 20.9 0.03 0.28 0.28 89 1012.5
20260904100434 17 283 12.9 24.1 0.03 0.28 0.28 90 1012.5
20260904095634 17 288 16.1 24.1 0.03 0.25 0.28 91 1012.2
20260904095135 17 245 11.3 17.7 0.03 0.25 0.28 91 1012.1
20260904094633 17 248 8.0 19.3 0.03 0.25 0.28 92 1011.9
20260904094144 17 292 8.0 19.3 0.03 0.25 0.28 92 1011.8
20260904093634 17 265 8.0 16.1 0.03 0.25 0.28 92 1011.9
20260904093128 17 299 4.8 11.3 0.03 0.25 0.28 92 1011.9
20260904092630 17 252 4.8 16.1 0.03 0.25 0.28 93 1011.7
20260904092127 17 259 8.0 20.9 0.03 0.25 0.28 92 1011.6
20260904091630 17 252 9.7 20.9 0.00 0.25 0.25 92 1011.6
20260904091126 16 0.0 0.0 0.00 0.25 0.25 92 1011.8
20260904090625 16 0.0 0.0 0.00 0.25 0.25 92 1011.8
20260904090131 16 0.0 0.0 0.00 0.25 0.25 92 1011.6
20260904085621 16 0.0 0.0 0.00 0.25 0.25 92 1011.4
20260904085121 16 0.0 0.0 0.00 0.25 0.25 91 1011.4
20260904084621 16 0.0 0.0 0.00 0.25 0.25 91 1011.5
20260904084126 16 0.0 0.0 0.00 0.25 0.25 92 1011.4
20260904083614 16 0.0 0.0 0.03 0.25 0.25 92 1011.3
20260904083115 16 0.0 0.0 0.03 0.25 0.25 92 1011.2
20260904082614 16 0.0 0.0 0.03 0.25 0.25 92 1011.1
20260904082116 16 0.0 0.0 0.03 0.25 0.25 93 1011.0
20260904081610 16 0.0 0.0 0.03 0.25 0.25 93 1010.9
20260904081113 16 0.0 0.0 0.05 0.25 0.25 92 1010.8
20260904080624 16 0.0 0.0 0.10 0.25 0.25 93 1010.9
20260904080110 16 0.0 0.0 0.23 0.25 0.25 93 1011.0
20260904075607 16 0.0 0.0 0.25 0.03 0.25 92 1011.0
20260904075107 16 0.0 0.0 0.25 0.03 0.25 92 1011.0
20260904074810 16 0.0 0.0 0.25 0.03 0.25 92 1010.7
20260904074548 16 0.0 0.0 0.25 0.03 0.25 92 1011.0
20260904073105 16 0.0 0.0 0.23 0.03 0.23 92 1010.8
20260904072601 16 0.0 0.0 0.23 0.03 0.23 92 1010.6
20260904072111 16 0.0 0.0 0.23 0.03 0.23 91 1010.5
20260904071601 17 0.0 0.0 0.23 0.03 0.23 90 1010.7
20260904071101 17 0.0 0.0 0.23 0.03 0.23 89 1010.6
20260904070556 18 0.0 0.0 0.15 0.03 0.05 92 1010.6
20260904070124 18 0.0 0.0 0.03 0.03 0.03 92 1009.4
20260904065557 18 0.0 0.0 0.00 0.00 0.00 92 1009.3
20260904065053 18 0.0 0.0 0.00 0.00 0.00 91 1009.2
20260904064553 18 0.0 0.0 0.00 0.00 0.00 91 1009.2
20260904064049 18 0.0 0.0 0.00 0.00 0.00 91 1009.2
20260904063549 19 0.0 0.0 0.00 0.00 0.00 91 1009.2
20260904063057 19 0.0 0.0 0.00 0.00 0.00 90 1009.2
20260904062548 19 0.0 0.0 0.00 0.00 0.00 90 1009.2
20260904062046 19 0.0 0.0 0.00 0.00 0.00 89 1009.4
20260904061702 19 0.0 0.0 0.00 0.00 0.00 88 1009.3
20260904061635 19 0.0 0.0 0.00 0.00 0.00 89 1009.3
20260904060544 20 0.0 0.0 0.00 0.00 0.00 87 1009.3
20260904060422 20 0.0 0.0 0.00 0.00 0.00 87 1009.3
20260904055539 20 0.0 0.0 0.00 0.00 0.00 87 1009.3
20260904055345 20 0.0 0.0 0.00 0.00 0.00 87 1009.3
20260904054537 19 0.0 0.0 0.00 0.00 0.00 87 1009.2
20260904054048 19 0.0 0.0 0.00 0.00 0.00 87 1009.2
20260904053830 19 0.0 0.0 0.00 0.00 0.00 87 1009.2
20260904053404 19 0.0 0.0 0.00 0.00 0.00 87 1009.2
20260904052534 19 0.0 0.0 0.00 0.00 0.00 87 1009.2
20260904052048 19 0.0 0.0 0.00 0.00 0.00 87 1009.3
20260904051534 19 0.0 0.0 0.00 0.00 0.00 88 1009.5
20260904051044 19 0.0 0.0 0.00 0.00 0.00 87 1009.5
20260904050829 19 0.0 0.0 0.00 0.00 0.00 88 1009.4
20260904050107 19 0.0 0.0 0.00 0.00 0.00 88 1009.5
20260904045526 19 0.0 0.0 0.00 0.00 0.00 89 1009.5
20260904045032 19 0.0 0.0 0.00 0.00 0.00 89 1009.6
20260904044527 19 0.0 0.0 0.00 0.00 0.00 89 1009.6
20260904044037 19 0.0 0.0 0.00 0.00 0.00 89 1009.6
20260904043815 19 0.0 0.0 0.00 0.00 0.00 89 1009.6
20260904043158 19 0.0 0.0 0.00 0.00 0.00 89 1009.9
20260904043131 19 0.0 0.0 0.00 0.00 0.00 89 1009.8
20260904042036 19 0.0 0.0 0.00 0.00 0.00 88 1010.0
20260904041524 19 0.0 0.0 0.00 0.00 0.00 88 1009.9
20260904041033 19 0.0 0.0 0.00 0.00 0.00 88 1010.1
20260904040524 19 0.0 0.0 0.00 0.00 0.00 88 1010.1
20260904040101 19 0.0 0.0 0.00 0.00 0.00 87 1010.1
20260904035525 19 0.0 0.0 0.00 0.00 0.00 87 1010.2
20260904035038 19 0.0 0.0 0.00 0.00 0.00 87 1010.2
20260904034529 19 0.0 0.0 0.00 0.00 0.00 87 1010.3
20260904034036 19 250 16.1 24.1 0.00 0.00 0.00 87 1010.3
20260904033525 19 250 16.1 30.6 0.00 0.00 0.00 87 1010.2
20260904033046 19 235 14.5 30.6 0.00 0.00 0.00 87 1010.3
20260904032524 19 227 14.5 32.2 0.00 0.00 0.00 87 1010.5
20260904032039 19 221 14.5 32.2 0.00 0.00 0.00 87 1010.5
20260904031527 19 245 17.7 27.4 0.00 0.00 0.00 87 1010.5
20260904031038 19 243 16.1 27.4 0.00 0.00 0.00 86 1010.5
20260904030521 19 204 16.1 29.0 0.00 0.00 0.00 86 1010.5
20260904030105 19 264 14.5 37.0 0.00 0.00 0.00 86 1010.7
20260904025810 19 257 20.9 37.0 0.00 0.00 0.00 86 1010.7
20260904025035 19 233 16.1 30.6 0.00 0.00 0.00 86 1010.9
20260904024521 19 257 17.7 30.6 0.00 0.00 0.00 86 1011.0
20260904024033 19 234 12.9 24.1 0.00 0.00 0.00 86 1011.2
20260904023519 19 206 12.9 27.4 0.00 0.00 0.00 86 1011.1
20260904023041 19 234 12.9 27.4 0.00 0.00 0.00 86 1011.1